This is the latest recevied weather packets stored in our database for station/object KF6ILA. If no packets are shown the sender has not sent any weather packets the latest 10 day(s).
| Time | Temp. | Humidity | Pressure | Rain* | Wind** | Luminosity | Snow |
|---|---|---|---|---|---|---|---|
| 1788072254 | 21.67° C | 49% | 1015.1 hPa | 0 mm | - | 0 W/m² | - |
| 1788071957 | 22.22° C | 49% | 1015 hPa | 0 mm | - | 0 W/m² | - |
| 1788071363 | 22.22° C | 49% | 1015.9 hPa | 0 mm | - | 0 W/m² | - |
| 1788070769 | 21.67° C | 50% | 1015.9 hPa | 0 mm | - | 0 W/m² | - |
| 1788070472 | 21.67° C | 50% | 1015.9 hPa | 0 mm | - | 0 W/m² | - |
| 1788069581 | 21.67° C | 51% | 1016.1 hPa | 0 mm | - | 0 W/m² | - |
| 1788068987 | 21.11° C | 53% | 1015.9 hPa | 0 mm | - | 0 W/m² | - |
| 1788067799 | 21.11° C | 56% | 1015.8 hPa | 0 mm | - | 0 W/m² | - |
| 1788066908 | 21.11° C | 57% | 1015.8 hPa | 0 mm | - | 0 W/m² | - |
| 1788066611 | 21.11° C | 57% | 1015.8 hPa | 0 mm | - | 0 W/m² | - |
| 1788066314 | 21.11° C | 57% | 1015.8 hPa | 0 mm | - | 0 W/m² | - |
| 1788065126 | 21.11° C | 58% | 1015.9 hPa | 0 mm | - | 0 W/m² | - |
| 1788064829 | 21.11° C | 59% | 1016 hPa | 0 mm | - | 0 W/m² | - |
| 1788063641 | 21.11° C | 61% | 1015.7 hPa | 0 mm | - | 0 W/m² | - |
| 1788063047 | 21.11° C | 62% | 1015.6 hPa | 0 mm | - | 0 W/m² | - |
| 1788062750 | 21.11° C | 62% | 1015.6 hPa | 0 mm | - | 0 W/m² | - |
| 1788062453 | 21.11° C | 61% | 1015.6 hPa | 0 mm | - | 0 W/m² | - |
| 1788061859 | 21.11° C | 62% | 1015.4 hPa | 0 mm | - | 0 W/m² | - |
| 1788061562 | 21.11° C | 61% | 1015.4 hPa | 0 mm | - | 0 W/m² | - |
| 1788061265 | 21.67° C | 60% | 1015.3 hPa | 0 mm | - | 0 W/m² | - |
| 1788060968 | 21.67° C | 58% | 1015.2 hPa | 0 mm | - | 0 W/m² | - |
| 1788060671 | 21.67° C | 58% | 1015 hPa | 0 mm | - | 0 W/m² | - |
| 1788060374 | 21.67° C | 59% | 1014.9 hPa | 0 mm | - | 0 W/m² | - |
| 1788059483 | 22.22° C | 58% | 1014.8 hPa | 0 mm | - | 0 W/m² | - |
| 1788058889 | 22.22° C | 57% | 1014.9 hPa | 0 mm | - | 0 W/m² | - |
* Rain latest hour (hover to see other rain measurements)
** Current wind speed in m/s (hover to see current wind gust speed)